PST,Max TemperatureF,Mean TemperatureF,Min TemperatureF,Max Dew PointF,MeanDew PointF,Min DewpointF,Max Humidity, Mean Humidity, Min Humidity, Max Sea Level PressureIn, Mean Sea Level PressureIn, Min Sea Level PressureIn, Max VisibilityMiles, Mean VisibilityMiles, Min VisibilityMiles, Max Wind SpeedMPH, Mean Wind SpeedMPH, Max Gust SpeedMPH,PrecipitationIn, CloudCover, Events, WindDirDegrees
2012-11-1,48,42,35,39,33,30,93,72,54,29.90,29.89,29.86,15,15,15,7,2,,0.00,4,Rain,66
2012-11-2,48,42,35,45,39,36,100,89,66,29.90,29.86,29.81,15,13,10,6,2,,0.00,8,Rain,56
2012-11-3,46,44,42,45,44,43,100,95,87,29.96,29.89,29.83,10,6,2,8,2,,0.00,8,Fog-Rain,276
2012-11-4,55,48,42,48,44,43,100,94,67,29.83,29.75,29.70,10,5,3,14,1,,0.00,8,Rain,220
2012-11-5,48,45,42,41,40,39,87,77,71,30.38,30.37,30.34,15,15,15,15,10,22,0.00,6,,285
2012-11-6,42,40,37,41,40,37,100,97,93,30.06,29.95,29.85,15,10,3,0,0,,0.00,8,Fog-Rain,-1
2012-11-7,42,40,37,41,39,37,100,96,87,30.07,30.06,30.03,15,11,0,0,0,,0.00,6,Fog-Rain,-1
2012-11-8,41,34,26,34,29,27,100,83,65,30.16,30.14,30.12,15,15,15,9,1,,0.00,1,,109
2012-11-9,35,34,32,28,20,18,81,57,48,30.18,30.16,30.15,15,15,15,16,10,,0.00,1,,91
2012-11-10,35,32,28,30,26,18,100,83,64,30.23,30.19,30.15,15,15,15,12,5,,0.00,5,,75
2012-11-11,39,36,33,39,34,30,100,92,81,30.06,30.02,29.99,15,14,10,7,4,,0.00,8,,49
2012-11-12,41,36,30,37,33,28,100,86,65,30.04,30.02,30.01,15,15,15,6,1,,0.00,7,Rain,60
2012-11-13,41,38,35,39,38,36,100,98,93,30.13,30.11,30.10,15,7,3,0,0,,0.00,8,Fog-Rain,-1
2012-11-14,46,44,41,41,41,41,100,87,81,30.27,30.25,30.22,15,9,4,14,8,,0.00,7,Rain,292
2012-11-15,42,37,32,37,34,30,100,87,76,30.14,30.05,29.94,15,15,14,5,1,,0.00,8,,47
2012-11-16,41,36,30,37,34,28,100,88,76,29.67,29.62,29.57,15,14,8,5,1,,0.00,7,Rain,80
2012-11-17,42,40,39,41,40,39,100,98,87,29.20,29.17,29.13,12,9,4,6,3,,0.00,7,Fog-Rain,25
2012-11-18,41,39,37,39,38,37,100,94,87,29.48,29.41,29.26,15,12,4,8,2,,0.00,8,Fog-Rain,61
2012-11-19,42,38,35,41,39,36,100,98,87,29.37,29.34,29.29,15,9,1,5,1,,0.00,7,Fog,16
2012-11-20,42,38,35,34,28,25,93,65,53,29.55,29.43,29.34,15,15,15,16,10,23,0.00,8,,52
2012-11-21,35,30,26,32,28,25,100,86,70,29.98,29.83,29.69,15,15,15,7,2,,0.00,5,,54
2012-11-22,37,35,33,37,30,25,100,78,60,30.15,30.02,29.90,15,8,3,13,8,,0.00,8,Rain-Snow,37
2012-11-23,41,39,37,39,38,37,100,97,93,29.96,29.93,29.86,10,6,3,5,0,,0.00,8,Rain,60
2012-11-24,39,37,35,39,37,36,100,98,93,30.21,30.17,30.12,5,4,2,10,2,,0.00,8,Rain,288
2012-11-25,39,37,35,37,36,34,100,94,87,30.39,30.37,30.35,15,11,4,2,0,,0.00,7,Fog,70
2012-11-26,37,34,30,32,31,28,100,88,70,30.27,30.22,30.17,15,15,15,7,2,,0.00,7,,55
2012-11-27,41,39,37,30,28,27,70,66,61,30.07,30.02,29.94,15,15,15,10,8,,0.00,8,,42
2012-11-28,42,40,39,28,27,27,61,58,53,29.80,29.67,29.54,15,15,15,15,12,21,0.00,7,,44
2012-11-29,42,40,39,36,32,28,81,69,61,29.42,29.39,29.34,15,14,8,10,4,,0.00,7,Rain,44
2012-11-30,42,40,39,27,26,25,61,55,49,29.24,29.21,29.19,15,14,10,10,7,,0.00,7,Rain,48